TimeMDT,TemperatureF,Dew PointF,Humidity,Sea Level PressureIn,VisibilityMPH,Wind Direction,Wind SpeedMPH,Gust SpeedMPH,PrecipitationIn,Events,Conditions,WindDirDegrees,DateUTC
12:15 AM,35.6,26.6,70,30.05,10.0,Calm,Calm,-,N/A,,Partly Cloudy,0,2013-03-26 06:15:00
12:35 AM,35.6,26.6,70,30.05,10.0,Calm,Calm,-,N/A,,Mostly Cloudy,0,2013-03-26 06:35:00
12:55 AM,35.6,24.8,65,30.04,10.0,Calm,Calm,-,N/A,,Partly Cloudy,0,2013-03-26 06:55:00
1:15 AM,35.6,26.6,70,30.03,10.0,Calm,Calm,-,N/A,,Partly Cloudy,0,2013-03-26 07:15:00
1:35 AM,35.6,30.2,81,30.03,10.0,Calm,Calm,-,N/A,,Partly Cloudy,0,2013-03-26 07:35:00
1:55 AM,35.6,28.4,75,30.02,10.0,West,3.5,-,N/A,,Mostly Cloudy,270,2013-03-26 07:55:00
2:15 AM,39.2,26.6,61,30.01,10.0,WSW,6.9,-,N/A,,Partly Cloudy,250,2013-03-26 08:15:00
2:35 AM,35.6,28.4,75,30.01,10.0,ENE,5.8,-,N/A,,Clear,60,2013-03-26 08:35:00
2:55 AM,33.8,26.6,75,30.00,10.0,NNW,5.8,-,N/A,,Clear,340,2013-03-26 08:55:00
3:15 AM,35.6,28.4,75,29.99,10.0,ESE,5.8,-,N/A,,Clear,110,2013-03-26 09:15:00
3:35 AM,33.8,28.4,81,29.99,10.0,Calm,Calm,-,N/A,,Clear,0,2013-03-26 09:35:00
3:55 AM,32.0,26.6,80,29.99,10.0,Calm,Calm,-,N/A,,Clear,0,2013-03-26 09:55:00
4:15 AM,37.4,32.0,81,29.98,10.0,West,4.6,-,N/A,,Clear,270,2013-03-26 10:15:00
4:35 AM,39.2,26.6,61,29.97,10.0,Calm,Calm,-,N/A,,Clear,0,2013-03-26 10:35:00
4:55 AM,33.8,26.6,75,29.97,10.0,ENE,4.6,-,N/A,,Clear,70,2013-03-26 10:55:00
5:15 AM,33.8,26.6,75,29.96,10.0,ENE,4.6,-,N/A,,Clear,60,2013-03-26 11:15:00
5:35 AM,33.8,24.8,70,29.96,10.0,Calm,Calm,-,N/A,,Clear,0,2013-03-26 11:35:00
5:55 AM,35.6,26.6,70,29.96,10.0,ENE,3.5,-,N/A,,Clear,70,2013-03-26 11:55:00
6:15 AM,37.4,23.0,56,29.96,10.0,SW,3.5,-,N/A,,Clear,230,2013-03-26 12:15:00
6:35 AM,35.6,26.6,70,29.96,10.0,East,5.8,-,N/A,,Clear,100,2013-03-26 12:35:00
6:51 AM,33.8,26.6,75,29.96,15.0,NE,3.5,-,N/A,,Mostly Cloudy,40,2013-03-26 12:51:00
7:57 AM,39.2,24.8,56,29.96,15.0,Calm,Calm,-,N/A,,Mostly Cloudy,0,2013-03-26 13:57:00
8:47 AM,42.8,23.0,46,29.96,15.0,Calm,Calm,-,N/A,,Overcast,0,2013-03-26 14:47:00
9:47 AM,42.8,26.6,53,29.96,15.0,Calm,Calm,-,N/A,,Mostly Cloudy,0,2013-03-26 15:47:00
10:50 AM,50.0,23.0,35,29.96,15.0,Calm,Calm,-,N/A,,Mostly Cloudy,0,2013-03-26 16:50:00
11:50 AM,51.8,26.6,38,29.95,15.0,Variable,4.6,-,N/A,,Overcast,0,2013-03-26 17:50:00
12:52 PM,48.2,28.4,46,29.94,15.0,WNW,5.8,-,N/A,,Mostly Cloudy,300,2013-03-26 18:52:00
1:47 PM,57.2,23.0,27,29.92,-9999.0,Variable,4.6,-,N/A,,Mostly Cloudy,0,2013-03-26 19:47:00
2:50 PM,55.4,24.8,31,29.91,15.0,Variable,3.5,-,N/A,,Mostly Cloudy,0,2013-03-26 20:50:00
3:50 PM,60.8,23.0,23,29.89,15.0,Variable,4.6,-,N/A,,Mostly Cloudy,0,2013-03-26 21:50:00
4:50 PM,57.2,30.2,36,29.89,15.0,NW,13.8,-,N/A,,Mostly Cloudy,310,2013-03-26 22:50:00
6:12 PM,51.8,33.8,50,29.89,15.0,NW,5.8,-,N/A,,Mostly Cloudy,310,2013-03-27 00:12:00
6:50 PM,51.8,46.4,82,29.90,15.0,WNW,18.4,-,N/A,,Mostly Cloudy,300,2013-03-27 00:50:00
7:58 PM,51.8,26.6,38,29.92,15.0,WNW,8.1,-,N/A,,Mostly Cloudy,300,2013-03-27 01:58:00
8:48 PM,48.2,30.2,50,29.93,15.0,WNW,10.4,-,N/A,,Mostly Cloudy,300,2013-03-27 02:48:00
8:55 PM,48.2,30.2,50,29.93,10.0,NW,11.5,-,N/A,,Clear,310,2013-03-27 02:55:00
9:15 PM,48.2,30.2,50,29.94,10.0,NW,12.7,-,N/A,,Mostly Cloudy,310,2013-03-27 03:15:00
9:35 PM,48.2,28.4,46,29.94,10.0,NW,10.4,-,N/A,,Mostly Cloudy,320,2013-03-27 03:35:00
9:55 PM,48.2,28.4,46,29.95,10.0,NW,12.7,-,N/A,,Mostly Cloudy,320,2013-03-27 03:55:00
10:15 PM,46.4,28.4,50,29.96,10.0,NW,11.5,-,N/A,,Scattered Clouds,320,2013-03-27 04:15:00
10:35 PM,44.6,28.4,53,29.96,10.0,NW,11.5,-,N/A,,Clear,320,2013-03-27 04:35:00
10:55 PM,46.4,28.4,50,29.96,10.0,NW,10.4,-,N/A,,Clear,320,2013-03-27 04:55:00
11:15 PM,44.6,26.6,49,29.97,10.0,NW,11.5,-,N/A,,Clear,320,2013-03-27 05:15:00
11:35 PM,44.6,28.4,53,29.97,10.0,NW,10.4,-,N/A,,Clear,320,2013-03-27 05:35:00
11:55 PM,42.8,28.4,57,29.98,10.0,NW,6.9,-,N/A,,Clear,320,2013-03-27 05:55:00